Flight Track Log - Related Links

Times and Time Zones

All times are in EDT time to prevent confusion due to time zone crossing. See the N779NC flight status page for this flight to view local times or setup timezone preferences in your user account.

Time Position Orientation Groundspeed Altitude Reporting Facility
EDT Latitude Longitude Course Direction KTS MPH feet Rate Location/Type
Mon 12:34:26 PM 34.5556 -86.7258 150° Southeast 196 226 3,600  Level Memphis Center
Mon 12:35:26 PM 34.5347 -86.6536 109° East 202 232 5,200 1,850 Climbing Memphis Center
Mon 12:36:00 PM 34.5274 -86.4126 109° East  Level FlightAware Approximate
Mon 12:36:26 PM 34.5300 -86.5681 94° East 226 260 7,300  Level Memphis Center
Mon 12:37:00 PM 34.5019 -86.3235 109° East  Level FlightAware Approximate
Mon 12:37:26 PM 34.5167 -86.4756 100° East 248 285 9,200  Level Memphis Center
Mon 12:38:00 PM 34.4775 -86.2339 108° East  Level FlightAware Approximate
Mon 12:38:45 PM 34.4925 -86.3600 104° East 282 325 11,800  Level Atlanta Center
Mon 12:39:45 PM 34.4692 -86.2611 106° East 299 344 13,600 1,950 Climbing Atlanta Center
Mon 12:40:45 PM 34.4439 -86.1572 106° East 304 350 15,700 1,750 Climbing Atlanta Center
Mon 12:41:45 PM 34.4206 -86.0533 105° East 310 357 17,100 1,150 Climbing Atlanta Center
Mon 12:42:45 PM 34.3892 -85.9367 108° East 331 381 18,000 850 Climbing Atlanta Center
Mon 12:43:45 PM 34.3575 -85.8128 107° East 354 407 18,800 1,250 Climbing Atlanta Center
Mon 12:44:45 PM 34.3281 -85.6814 105° East 373 429 20,500 1,100 Climbing Atlanta Center
Mon 12:45:45 PM 34.2964 -85.5500 106° East 400 460 21,000 250 Climbing Atlanta Center
Mon 12:46:45 PM 34.2647 -85.4111 105° East 418 481 21,000 -750 Level Atlanta Center
Mon 12:47:45 PM 34.2264 -85.2775 109° East 423 487 19,500 -2,450 Descending Atlanta Center
Mon 12:48:45 PM 34.1817 -85.1436 112° Southeast 423 487 16,100 -2,750 Descending Atlanta Center
Mon 12:49:45 PM 34.1094 -85.0422 131° Southeast 396 456 14,000 -1,300 Descending Atlanta Center
Mon 12:50:45 PM 34.0414 -84.9564 134° Southeast 371 427 13,500 -750 Descending Atlanta Center
Mon 12:51:45 PM 33.9750 -84.8756 135° Southeast 344 396 12,500 -750 Descending Atlanta Center
Mon 12:52:45 PM 33.9006 -84.7872 135° Southeast 359 413 12,000 -250 Descending Atlanta Center
Mon 12:53:45 PM 33.8300 -84.7014 135° Southeast 366 421 12,000 50 Level Atlanta Center
Mon 12:54:45 PM 33.7678 -84.6186 132° Southeast 345 397 12,100 -200 Climbing Atlanta Center
Mon 12:55:45 PM 33.7306 -84.5308 117° Southeast 320 368 11,600 -1,200 Descending Atlanta Center
Mon 12:56:45 PM 33.7289 -84.4283 91° East 298 343 9,700 -1,750 Descending Atlanta Center
Mon 12:57:45 PM 33.7333 -84.3311 87° East 293 337 8,100 -1,612 Descending Atlanta Center
Mon 12:58:59 PM 33.7333 -84.2167 90° East 281 323 6,100 -1,406 Descending Atlanta TRACON
Mon 12:59:53 PM 33.7333 -84.1333 90° East 273 314 5,100 -579 Descending Atlanta TRACON
Mon 01:00:53 PM 33.7333 -84.0500 90° East 266 306 5,000 -48 Descending Atlanta TRACON
Mon 01:01:59 PM 33.7000 -83.9833 121° Southeast 212 244 5,000  Level Atlanta TRACON
Mon 01:02:59 PM 33.6667 -84.0167 220° Southwest 196 226 5,000  Level Atlanta TRACON
Mon 01:03:59 PM 33.6500 -84.0833 253° West 190 219 5,000 53 Level Atlanta TRACON
Mon 01:04:53 PM 33.6500 -84.1333 270° West 192 221 5,100 -368 Climbing Atlanta TRACON
Mon 01:05:53 PM 33.6500 -84.2000 270° West 188 216 4,300 -857 Descending Atlanta TRACON
Mon 01:06:59 PM 33.6500 -84.2667 270° West 190 219 3,300 -952 Descending Atlanta TRACON
Mon 01:07:59 PM 33.6500 -84.3333 270° West 171 197 2,300 -900 Descending Atlanta TRACON
Mon 01:08:59 PM 33.6500 -84.3833 270° West 144 166 1,500 -800 Descending Atlanta TRACON
Mon 01:10:00 PM 33.6284 -84.4167 North  Level FlightAware Approximate

Login

Don't have an account? Register now (free) for customized features, flight alerts, and more!